Location: Unspecified
(0.0000°N, 0.0000°E)
Time: 18:15:30
(UTC+00:00)

A-11 Canister half - Visible Passes

Search period start: 23 March 2017 00:00
Search period end: 02 April 2017 00:00
Orbit: 1514 x 1685 km, 47.2° (Epoch: 21 March)

Date Brightness Start Highest point End Pass type
(mag) Time Alt. Az. Time Alt. Az. Time Alt. Az.
23 Mar 11.2 02:01:53 12° ESE 02:01:53 12° ESE 02:02:21 10° ESE visible
23 Mar 9.5 04:00:08 39° SSW 04:00:08 39° SSW 04:07:04 10° SSE visible
24 Mar 9.8 03:39:12 33° S 03:39:12 33° S 03:44:20 10° SSE visible
25 Mar 10.3 03:18:11 25° SSE 03:18:11 25° SSE 03:21:36 10° SSE visible
26 Mar 10.7 02:57:05 17° SSE 02:57:05 17° SSE 02:58:49 10° SSE visible
27 Mar 11.1 02:35:55 10° SSE 02:35:55 10° SSE 02:36:03 10° SSE visible
